Home   Weather   Cayenne   Past weeks

Flag for French Guiana Past Weather in Cayenne, French Guiana — Yesterday and Last 2 Weeks

73 °F


Feels Like: 68 °F
Forecast: 78 / 87 °F
Wind: 1 mph from Southeast

Location: Cayenne / Rochambeau

Current Time: Oct 27, 2016 at 12:18:52 AM

Latest Report: Oct 27, 2016 at 12:00 AM

Visibility: 10 mi

Pressure: 29.80 "Hg

Humidity: 100%

Dew Point: 73 °F

Location of CayenneLocation

Past Weather in Cayenne — Graph


Cayenne Temperature Yesterday

Maximum temperature yesterday: 93 °F (at 2:00 PM)
Minimum temperature yesterday: 72 °F (at 4:30 AM)
Average temperature yesterday: 81 °F

High & Low Weather Summary for the Past Weeks

High93 °F (Oct 22, 12:00 PM)100% (Oct 12, 2:00 AM)29.98 "Hg (Oct 12, 2:00 AM)
Low72 °F (Oct 13, 6:00 AM)44% (Oct 15, 1:00 PM)29.71 "Hg (Oct 21, 3:30 PM)
Average81 °F81%29.84 "Hg
* Reported Oct 11 11:00 PM — Oct 26 11:00 PM, Cayenne, Weather by CustomWeather, © 2016

Note: Actual official high and low records may vary slightly from our data, if they occured in-between our weather recording intervals... More about our weather records


Cayenne Weather History for the Previous 24 Hours

Scroll right to see more
Time TempWeatherWind HumidityBarometerVisibility
11:00 PM
Wed, Oct 26
75 °FClear.No wind89%29.80 "Hg10 mi
10:30 PM77 °FClear.2 mph89%29.80 "Hg10 mi
10:00 PM79 °FClear.2 mph84%29.80 "Hg10 mi
9:30 PM79 °FClear.3 mph84%29.80 "Hg10 mi
9:00 PM79 °FClear.3 mph84%29.80 "Hg10 mi
8:30 PM79 °FClear.3 mph84%29.77 "Hg10 mi
8:00 PM81 °FWarm.5 mph74%29.77 "HgN/A
7:30 PM81 °FClear.5 mph74%29.77 "Hg10 mi
7:00 PM81 °FClear.5 mph74%29.74 "Hg10 mi
6:30 PM82 °FClear.5 mph70%29.74 "Hg10 mi
6:00 PM84 °FSunny.8 mph62%29.74 "Hg10 mi
5:30 PM86 °FPassing clouds.7 mph59%29.74 "HgN/A
5:00 PM88 °FSunny.9 mph59%29.74 "Hg10 mi
4:30 PM90 °FSunny.10 mph52%29.71 "Hg10 mi
4:00 PM91 °FPassing clouds.9 mph52%29.71 "HgN/A
3:30 PM91 °FPassing clouds.8 mph52%29.71 "HgN/A
3:00 PM91 °FPassing clouds.9 mph52%29.74 "HgN/A
2:30 PM93 °FPassing clouds.8 mph47%29.74 "HgN/A
2:00 PM93 °FPassing clouds.8 mph49%29.77 "HgN/A
1:30 PM91 °FPassing clouds.7 mph46%29.77 "HgN/A
1:00 PM91 °FPassing clouds.8 mph46%29.80 "HgN/A
12:30 PM91 °FPassing clouds.9 mph46%29.80 "HgN/A
12:00 PM90 °FScattered clouds.8 mph52%29.83 "HgN/A
11:30 AM90 °FPassing clouds.8 mph55%29.86 "HgN/A
11:00 AM90 °FScattered clouds.8 mph55%29.86 "HgN/A
10:30 AM86 °FBroken clouds.7 mph62%29.86 "HgN/A
10:00 AM88 °FPartly sunny.7 mph62%29.89 "HgN/A
9:30 AM86 °FPartly sunny.6 mph66%29.89 "HgN/A
9:00 AM84 °FPassing clouds.7 mph70%29.86 "HgN/A
8:30 AM81 °FSunny.1 mph79%29.86 "Hg10 mi
8:00 AM77 °FPassing clouds.1 mph94%29.86 "HgN/A
7:30 AM75 °FPassing clouds.No wind94%29.83 "HgN/A
7:00 AM73 °FSunny.No wind100%29.83 "Hg10 mi
6:30 AM72 °FSunny.No wind94%29.80 "Hg10 mi
6:00 AM72 °FClear.No wind100%29.80 "HgN/A
5:30 AM72 °FPassing clouds.No wind100%29.80 "HgN/A
5:00 AM72 °FFog.No wind100%29.77 "Hg4 mi
4:30 AM72 °FPartly cloudy.No wind100%29.77 "HgN/A
4:00 AM73 °FPassing clouds.No wind100%29.77 "HgN/A
3:30 AM73 °FPassing clouds.No wind94%29.77 "HgN/A
3:00 AM73 °FPassing clouds.No wind94%29.77 "HgN/A
2:30 AM73 °FPassing clouds.No wind94%29.77 "HgN/A
2:00 AM73 °FPassing clouds.No wind100%29.77 "HgN/A
1:30 AM75 °FClear.2 mph94%29.80 "HgN/A
1:00 AM75 °FPassing clouds.2 mph94%29.80 "HgN/A
12:30 AM77 °FPassing clouds.3 mph94%29.80 "HgN/A
12:00 AM77 °FPassing clouds.3 mph89%29.83 "HgN/A
Weather by CustomWeather, © 2016

See weather overviewHow to use our weather pages